[[{"header":{"parameterUnit":"m.s-1","parameterCategory":1,"la1":30.2991,"la2":30.254,"lo1":-89.0895,"lo2":-89.0444,"dy":0.0017,"dx":0.0017,"nx":28,"ny":28,"refTime":"2024-07-15T09:00:00:Z","depth":0,"parameterNumber":2,"parameterNumberName":"U-component_of_WINDS"},"data":[0,0,0,0,0,0,0,0,0,0,0,0,0,0,0,0,0,0,0,0,0,0,0,0,0,0,0,0,0,0,0,0,0,0,0,0,0,0,0,0,0,0,0,0,0,0,0,0,0,0,0,0,0,0,0,0,0,0,0.316,0.3161,0,0.3268,0.327,0.3271,0.3334,0.3334,0.3334,0.3335,0.3444,0.3446,0.3449,0,0,0,0,0,0,0,0,0,0,0,0,0,0.3003,0.3006,0.316,0.3161,0.3162,0.3268,0.327,0.3271,0.3334,0.3334,0.3334,0.3335,0.3443,0.3446,0.3449,0,0,0,0,0,0,0,0,0,0,0,0,0,0.3087,0.3006,0.3159,0.3206,0.3212,0.3268,0.327,0.3271,0.3334,0.3334,0.3334,0.3335,0.3442,0.3446,0.345,0.3467,0,0,0.3462,0.3464,0,0,0,0,0,0,0,0,0.3082,0.3093,0.3198,0.3203,0.3209,0.3288,0.3255,0.3337,0.3334,0.3287,0.3335,0.3335,0.3391,0.34,0.3419,0.3472,0.3477,0.3462,0.3465,0.3466,0.3468,0,0,0,0,0,0,0,0.3076,0.3089,0.3203,0.32,0.3206,0.3221,0.3233,0.327,0.3336,0.3291,0.3296,0.3308,0.3395,0.3415,0.3422,0.3478,0.3462,0.3466,0.3468,0.347,0.3549,0.3549,0,0,0,0,0,0,0.3064,0.3083,0.3199,0.3206,0.3146,0.3223,0.3237,0.3262,0.3336,0.3347,0.3308,0.3311,0.3408,0.3417,0.3426,0.345,0.3466,0.347,0.3473,0.3549,0.3549,0.3549,0,0,0,0,0,0,0.306,0.3073,0.3195,0.3146,0.3163,0.3226,0.3253,0.3264,0.3285,0.3348,0.336,0.3317,0.3409,0.3421,0.3456,0.3455,0.3472,0.3476,0.355,0.3549,0.3549,0.3499,0,0,0,0,0,0,0.3055,0.3072,0.308,0.3146,0.3165,0.3224,0.3253,0.3266,0.3292,0.3297,0.336,0.3371,0.341,0.345,0.346,0.3461,0.3479,0.355,0.355,0.3549,0.3501,0.3497,0.3493,0,0,0,0,0,0.3049,0.3061,0.308,0.3093,0.3176,0.3223,0.3234,0.328,0.3292,0.3299,0.334,0.3369,0.3453,0.3453,0.3465,0.3467,0.355,0.355,0.3549,0.3503,0.3498,0.3494,0,0,0,0,0,0,0.2993,0.3071,0.3092,0.3126,0.3168,0.3234,0.3246,0.3273,0.3312,0.3315,0.3369,0.3383,0.3413,0.3444,0.3442,0.3487,0.3505,0.3507,0.3466,0.3461,0.3458,0.345,0.3482,0,0,0,0,0,0.2984,0.3017,0.3083,0.3106,0.3126,0.3182,0.3204,0.3235,0.3281,0.3298,0.3342,0.3383,0.342,0.3442,0.3479,0.3506,0.352,0.3513,0.3509,0.3506,0.3506,0.3522,0.3519,0.3547,0.3547,0.3547,0,0,0.2967,0.3014,0.3031,0.3096,0.3132,0.3163,0.3196,0.3229,0.3252,0.3303,0.3339,0.3372,0.3422,0.3453,0.3469,0.348,0.3502,0.3505,0.3502,0.3504,0.3521,0.3518,0.3515,0.3546,0.3546,0.3546,0,0,0.2951,0.299,0.3014,0.3049,0.3103,0.314,0.3145,0.3207,0.3231,0.3269,0.3307,0.3335,0.3397,0.3431,0.3456,0.3451,0.3479,0.3462,0.3442,0.3456,0.3454,0.3452,0.345,0.3448,0.3462,0.3462,0.3462,0,0.2923,0.2973,0.3022,0.3052,0.3078,0.3126,0.3149,0.3181,0.3244,0.3261,0.3272,0.3349,0.3387,0.3425,0.3424,0.3443,0.345,0.3455,0.345,0.3449,0.3448,0.3446,0.3445,0.346,0.346,0.346,0.346,0,0.2935,0.2968,0.298,0.304,0.3069,0.3095,0.3146,0.3169,0.3197,0.3232,0.3269,0.3315,0.3361,0.3373,0.3401,0.3415,0.342,0.344,0.3459,0.3442,0.3441,0.3441,0.3456,0.3457,0.3458,0.3458,0,0,0.2887,0.2973,0.2977,0.3004,0.3067,0.3093,0.3121,0.3167,0.3184,0.3226,0.3249,0.3299,0.3318,0.3346,0.3378,0.3391,0.3383,0.3409,0.3411,0.3402,0.34,0.3385,0.3383,0.3402,0.3402,0.3402,0.3396,0,0.288,0.2934,0.2978,0.3014,0.3045,0.309,0.3114,0.3154,0.3187,0.3217,0.3254,0.3288,0.331,0.3328,0.3342,0.3381,0.3383,0.3382,0.3423,0.3424,0.3409,0.3383,0.3367,0.3359,0.3396,0.3396,0.3396,0,0.288,0.292,0.2959,0.3017,0.3032,0.3053,0.3098,0.3126,0.3172,0.3196,0.3226,0.326,0.329,0.3306,0.3347,0.3345,0.3364,0.3386,0.3386,0.3392,0.3409,0.3387,0.3358,0.3356,0.3396,0.3396,0.3396,0,0.284,0.2904,0.2935,0.2957,0.3027,0.304,0.3069,0.3115,0.314,0.3178,0.3194,0.3236,0.3258,0.3289,0.3332,0.334,0.3368,0.3388,0.3387,0.3386,0.3391,0.339,0.3364,0.3404,0.3404,0.3404,0.3404,0,0.2828,0.285,0.2919,0.2938,0.2963,0.3013,0.3036,0.3069,0.311,0.3135,0.3177,0.3199,0.3255,0.3284,0.3318,0.3346,0.3356,0.3375,0.3384,0.3371,0.3369,0.3385,0.3386,0.3404,0.3404,0.3404,0.3404,0,0.2789,0.2835,0.2873,0.2935,0.2951,0.2967,0.3019,0.3039,0.3074,0.3106,0.3116,0.3171,0.3207,0.3253,0.3304,0.3326,0.3351,0.3364,0.3335,0.334,0.3337,0.3336,0.332,0.3319,0.3359,0.3359,0.3358,0,0.2778,0.2796,0.286,0.288,0.2908,0.294,0.2965,0.3014,0.3038,0.3091,0.3104,0.3143,0.3178,0.3233,0.3277,0.3315,0.333,0.3321,0.3336,0.3322,0.3329,0.3327,0.3329,0.3318,0.3317,0.3316,0.3316,0,0.2753,0.2775,0.2809,0.2852,0.288,0.2916,0.2953,0.2967,0.3024,0.3048,0.3086,0.3113,0.3164,0.3202,0.3247,0.3276,0.3305,0.3311,0.3313,0.33,0.3282,0.3291,0.3325,0.3311,0.3312,0.3312,0.3312,0.3312,0.2727,0.2744,0.2792,0.2829,0.2862,0.2896,0.2917,0.2955,0.2987,0.3033,0.306,0.3096,0.314,0.3203,0.323,0.3259,0.327,0.3273,0.3273,0.3273,0.3269,0.3278,0.3267,0.3267,0.3268,0.3268,0.3268,0,0.2703,0.2736,0.2769,0.282,0.2849,0.2874,0.2917,0.2938,0.297,0.3009,0.3042,0.3084,0.3121,0.3167,0.3207,0.3221,0.3235,0.323,0.3229,0.3235,0.3257,0.3251,0.3217,0.3217,0.3217,0.3218,0.3218,0.3218,0.2694,0.2725,0.2753,0.28,0.2832,0.2869,0.2891,0.2921,0.2952,0.2998,0.3029,0.3059,0.3101,0.3144,0.3178,0.3191,0.3203,0.3193,0.3209,0.3229,0.3234,0.3238,0.3233,0.3196,0.3196,0.3185,0.3185,0.3185]},{"header":{"parameterUnit":"m.s-1","parameterCategory":1,"la1":30.2991,"la2":30.254,"lo1":-89.0895,"lo2":-89.0444,"dy":0.0017,"dx":0.0017,"nx":28,"ny":28,"refTime":"2024-07-15T09:00:00:Z","depth":0,"parameterNumber":3,"parameterNumberName":"V-component_of_WINDS"},"data":[0,0,0,0,0,0,0,0,0,0,0,0,0,0,0,0,0,0,0,0,0,0,0,0,0,0,0,0,0,0,0,0,0,0,0,0,0,0,0,0,0,0,0,0,0,0,0,0,0,0,0,0,0,0,0,0,0,0,5.0274,5.0274,0,5.0257,5.0257,5.0256,5.0194,5.0193,5.0191,5.019,5.0174,5.0175,5.0176,0,0,0,0,0,0,0,0,0,0,0,0,0,5.0254,5.0254,5.0274,5.0274,5.0273,5.0257,5.0257,5.0256,5.0195,5.0193,5.0191,5.0189,5.0174,5.0175,5.0176,0,0,0,0,0,0,0,0,0,0,0,0,0,5.0252,5.0255,5.0274,5.024,5.0237,5.0257,5.0257,5.0256,5.0195,5.0193,5.0191,5.0189,5.0173,5.0175,5.0176,5.0227,0,0,5.018,5.018,0,0,0,0,0,0,0,0,5.0252,5.0253,5.0246,5.0243,5.0239,5.0225,5.0244,5.0246,5.0195,5.0211,5.019,5.0188,5.0193,5.0192,5.0194,5.0226,5.0225,5.018,5.0181,5.0181,5.0182,0,0,0,0,0,0,0,5.0253,5.0253,5.0267,5.0246,5.0242,5.0227,5.0224,5.0244,5.0214,5.021,5.0205,5.0204,5.0191,5.0193,5.0193,5.0225,5.018,5.0181,5.0182,5.0183,5.0298,5.03,0,0,0,0,0,0,5.0257,5.0254,5.0268,5.0267,5.0241,5.0229,5.0226,5.0232,5.0214,5.0209,5.0206,5.0201,5.0192,5.0192,5.0192,5.025,5.0181,5.0183,5.0183,5.0296,5.0298,5.0301,0,0,0,0,0,0,5.0257,5.0259,5.0268,5.0259,5.0259,5.0231,5.0239,5.0233,5.0235,5.0211,5.0205,5.0213,5.019,5.019,5.0218,5.0249,5.0183,5.0184,5.0293,5.0296,5.03,5.0367,0,0,0,0,0,0,5.0257,5.0259,5.0278,5.026,5.026,5.0295,5.0241,5.0234,5.0237,5.0231,5.0216,5.0212,5.0188,5.0217,5.022,5.0249,5.0186,5.029,5.0294,5.0298,5.0362,5.0372,5.0381,0,0,0,0,0,5.0256,5.0298,5.0279,5.0281,5.0282,5.0296,5.0296,5.0268,5.024,5.0259,5.0243,5.0212,5.0245,5.022,5.0223,5.0254,5.0288,5.0293,5.0298,5.0357,5.037,5.0381,0,0,0,0,0,0,5.032,5.0295,5.0274,5.0311,5.0306,5.0286,5.0308,5.0282,5.0286,5.028,5.0245,5.0242,5.0275,5.0267,5.024,5.0302,5.0261,5.0267,5.0306,5.0317,5.0327,5.0328,5.0187,0,0,0,0,0,5.0339,5.0352,5.0329,5.0364,5.0363,5.0336,5.0341,5.032,5.0314,5.0312,5.0298,5.0294,5.0303,5.031,5.0317,5.0361,5.0357,5.0383,5.0393,5.0401,5.0406,5.0428,5.044,5.0317,5.0317,5.0317,0,0,5.0377,5.0365,5.0375,5.0377,5.037,5.0385,5.0335,5.0353,5.0363,5.0314,5.034,5.033,5.0323,5.0359,5.0374,5.0353,5.0439,5.0407,5.0414,5.0415,5.0435,5.0446,5.0457,5.0321,5.032,5.032,0,0,5.0454,5.0446,5.0474,5.0469,5.046,5.0443,5.045,5.0433,5.0425,5.045,5.0414,5.0426,5.0443,5.0439,5.044,5.0516,5.0488,5.052,5.057,5.0592,5.0601,5.061,5.0637,5.0647,5.0525,5.0526,5.0526,0,5.0502,5.0523,5.0492,5.0512,5.0513,5.047,5.0498,5.0495,5.049,5.0492,5.0469,5.0489,5.0481,5.0516,5.0535,5.0537,5.0543,5.0521,5.0603,5.0611,5.0618,5.0643,5.0654,5.0529,5.0529,5.0529,5.0528,0,5.0583,5.0597,5.0621,5.0616,5.0621,5.0645,5.0618,5.0627,5.0606,5.0591,5.0617,5.0606,5.061,5.0617,5.0597,5.0649,5.0636,5.0609,5.0567,5.0634,5.0657,5.0667,5.0535,5.0534,5.0532,5.0531,0,0,5.0698,5.0677,5.0686,5.0683,5.0671,5.0682,5.0705,5.0709,5.0716,5.0715,5.0733,5.0748,5.0722,5.0723,5.0702,5.0721,5.0783,5.0691,5.069,5.0708,5.0839,5.086,5.0872,5.0764,5.0766,5.0767,5.084,0,5.0771,5.0807,5.0781,5.0822,5.0835,5.0795,5.0814,5.0809,5.0796,5.0806,5.0791,5.0803,5.0768,5.0768,5.0786,5.0771,5.0808,5.0766,5.078,5.0781,5.0783,5.0884,5.0905,5.0974,5.0849,5.085,5.0851,0,5.086,5.0862,5.0904,5.0889,5.0894,5.0912,5.0914,5.0923,5.0917,5.0906,5.0907,5.0881,5.0903,5.0863,5.0892,5.0864,5.0869,5.0862,5.0864,5.0864,5.082,5.0885,5.0995,5.1005,5.0865,5.0864,5.0863,0,5.0939,5.0952,5.0979,5.0979,5.0962,5.0976,5.097,5.0961,5.0966,5.0968,5.097,5.0975,5.0977,5.0981,5.0957,5.0931,5.099,5.0948,5.0981,5.0982,5.0995,5.0994,5.1106,5.0999,5.0999,5.0999,5.0999,0,5.1023,5.105,5.1015,5.1031,5.1061,5.1031,5.1061,5.1051,5.1044,5.1058,5.1024,5.1039,5.1006,5.1017,5.0999,5.1026,5.1028,5.1019,5.1014,5.1022,5.1023,5.1024,5.1018,5.1002,5.1001,5.1,5.1,0,5.1116,5.1093,5.112,5.1103,5.1099,5.1122,5.1107,5.1122,5.1107,5.1125,5.1128,5.1104,5.1115,5.1092,5.1101,5.1088,5.1126,5.1114,5.1128,5.1124,5.1158,5.1155,5.1274,5.1288,5.1173,5.1175,5.1175,0,5.117,5.119,5.1175,5.1182,5.1177,5.1189,5.1193,5.1165,5.117,5.1165,5.1181,5.1189,5.1194,5.1214,5.1198,5.1205,5.1191,5.1233,5.1192,5.12,5.1191,5.119,5.1192,5.1241,5.1242,5.1244,5.1244,0,5.1268,5.1256,5.1263,5.1267,5.1273,5.1274,5.1273,5.1281,5.1251,5.1259,5.127,5.1274,5.1282,5.1291,5.1294,5.1288,5.1262,5.1258,5.1266,5.1273,5.1281,5.1277,5.115,5.1255,5.1254,5.1253,5.1252,5.1252,5.1343,5.1359,5.1351,5.136,5.1356,5.1356,5.1369,5.1356,5.1365,5.1369,5.1352,5.1367,5.1361,5.1361,5.1358,5.137,5.1351,5.1363,5.1366,5.1369,5.1374,5.128,5.137,5.137,5.137,5.1369,5.1369,0,5.1439,5.1432,5.144,5.144,5.1448,5.1422,5.142,5.1428,5.1441,5.1438,5.1443,5.1456,5.1465,5.145,5.1456,5.1468,5.1456,5.1471,5.1469,5.1468,5.1391,5.1383,5.1481,5.1481,5.1481,5.1481,5.148,5.148,5.1489,5.1515,5.1503,5.1526,5.1519,5.1533,5.1534,5.1534,5.1531,5.1547,5.1554,5.1544,5.1536,5.1541,5.1548,5.1544,5.1547,5.1566,5.1557,5.1485,5.1474,5.1463,5.1456,5.1567,5.1567,5.1634,5.1635,5.1635]}]]